Location: Newark
(25.4800°N, 85.7200°E)
Time: 19:56:21
(UTC+00:00)

Explorer 11/Cluster Stage 4 - Pass Details

Date: 26 August 2019
Orbit: 467 x 1259 km, 28.8° (Epoch: 18 October)

Event Time Altitude Azimuth Distance (km) Brightness Sun altitude
Rises 00:18:37 0° 203° (SSW) 3,386 9.5 4.4°
Reaches altitude 10° 00:21:54 10° 183° (S) 2,612 9.2 5.1°
Maximum altitude 00:25:58 17° 144° (SE) 2,290 9.4 6.0°
Drops below altitude 10° 00:30:29 10° 105° (ESE) 2,966 11.0 7.1°
Sets 00:34:33 0° 88° (E) 4,051 12.6 8.0°
